Location: Bishop�s Knoyle
(51.0728°N, 2.1714°W)
Time: 19:58:55
(UTC+00:00)

BEESAT 2 - Pass Details

Date: 03 December 2021
Orbit: 498 x 513 km, 64.9° (Epoch: 28 January)

Event Time Altitude Azimuth Distance (km) Brightness Sun altitude
Exits shadow 06:10:35 22° 326° (NW) 1,186 ? -15.2°
Maximum altitude 06:13:03 70° 46° (NE) 555 ? -14.8°
Drops below altitude 10° 06:16:56 10° 131° (SE) 1,740 ? -14.3°
Sets 06:19:06 0° 134° (SE) 2,621 ? -13.9°
